Regional Weather Roundup
Issued by NWS

Home | Current Version | Previous Version | Graphics & Text | Print | Product List | Glossary On
Versions: 1 2 3 4 5 6 7 8 9 10 11 12 13 14 15 16 17 18 19 20 21 22 23 24 25 26 27 28 29 30 31 32 33 34 35 36 37 38 39 40 41 42 43 44 45 46 47 48 49 50
000
ASUS43 KBIS 161002
RWRND

NORTH DAKOTA REGIONAL WEATHER ROUNDUP
NATIONAL WEATHER SERVICE BISMARCK ND
500 AM CDT MON OCT 16 2017

NOTE: "FAIR" INDICATES FEW OR NO CLOUDS BELOW 12,000 FEET WITH NO
SIGNIFICANT WEATHER AND/OR OBSTRUCTIONS TO VISIBILITY.


NDZ001>003-009>011-017-161100-
NORTHWEST NORTH DAKOTA

CITY           SKY/WX    TMP DP  RH WIND       PRES   REMARKS
WILLISTON      CLEAR     33  29  85 SW9       29.96F
MINOT          CLEAR     46  31  55 S16       29.94F
MINOT AFB      CLEAR     42  30  64 SW16      29.92F
$$

NDZ018>021-031>035-040>046-161100-
SOUTHWEST NORTH DAKOTA

CITY           SKY/WX    TMP DP  RH WIND       PRES   REMARKS
BISMARCK       CLEAR     32  29  88 E6        30.09F
DICKINSON      CLEAR     41  28  60 SW15      30.01F
GARRISON         N/A     37  32  82 S7        30.01F
HETTINGER ARPT CLEAR     39  27  62 W5        30.10F
$$

NDZ004>008-012>016-024-026-027-054-161100-
NORTHEAST NORTH DAKOTA

CITY           SKY/WX    TMP DP  RH WIND       PRES   REMARKS
GRAND FORKS    CLOUDY    33  29  85 S9        30.08F
GRND FRKS AFB  CLOUDY    34  29  79 SW8       30.07F
DEVILS LAKE    CLEAR     44  34  67 SW15      30.04F
$$

NDZ022-023-025-028>030-036>039-047>053-161100-
SOUTHEAST NORTH DAKOTA

CITY           SKY/WX    TMP DP  RH WIND       PRES   REMARKS
FARGO          CLOUDY    33  30  88 S9        30.14S
JAMESTOWN      CLEAR     33  28  81 S7        30.10F
$$





USA.gov is the U.S. government's official web portal to all federal, state and local government web resources and services.